This demonstration page uses our WeatherBlox Daily Observations layout. Learn more.

38.88101, -77.10428

Hourly Observations for January 17, 2020

Temp ( °F °C ) Dew Point ( °F °C ) Humidity (%) Winds ( mph kmh ) Pressure ( in mb ) Visibility ( mi km ) Precip ( " mm )
12:52 am 00:52 Partly Cloudy 36 2.2 20 -6.7 52 52 NW 13 20 30.46 1032 10 16.0934 0 0
1:52 am 01:52 Clear 36 2.2 20 -6.7 52 52 NW 15 24 30.47 1032 10 16.0934 0 0
2:52 am 02:52 Partly Cloudy 35 1.7 19 -7.2 52 52 NNW 16 26 30.5 1033 10 16.0934 0 0
3:28 am 03:28 Windy with Snow Likely 34 1.1 23 -5 64 64 N 22 35 30.52 1034 6 9.65604 0.001 0.001
3:41 am 03:41 Cloudy 35 1.7 21 -6.1 57 57 NNW 23 37 30.52 1034 9 14.48406 0.001 0.001
3:52 am 03:52 Cloudy 34 1.1 21 -6.1 59 59 NNW 25 41 30.53 1034 10 16.0934 0.001 0.001
4:52 am 04:52 Clear 33 0.6 15 -9.4 47 47 NW 21 33 30.56 1035 10 16.0934 0 0
5:52 am 05:52 Partly Cloudy 32 0 13 -10.6 45 45 NW 20 31 30.61 1037 10 16.0934 0 0
6:52 am 06:52 Mostly Clear 31 -0.6 14 -10 49 49 NNW 17 28 30.64 1038 10 16.0934 0 0
7:52 am 07:52 Mostly Sunny 31 -0.6 13 -10.6 47 47 NNW 18 30 30.67 1039 10 16.0934 0 0
8:52 am 08:52 Mostly Sunny 32 0 13 -10.6 45 45 NNW 21 33 30.7 1040 10 16.0934 0 0
9:52 am 09:52 Partly Cloudy 34 1.1 14 -10 44 44 NNW 17 28 30.71 1040 10 16.0934 0 0
10:52 am 10:52 Partly Cloudy 36 2.2 14 -10 40 40 NNW 17 28 30.73 1041 10 16.0934 0 0
11:52 am 11:52 Partly Cloudy 37 2.8 13 -10.6 37 37 NNW 12 19 30.73 1041 10 16.0934 0 0
12:52 pm 12:52 Partly Cloudy 38 3.3 13 -10.6 36 36 N 16 26 30.71 1040 10 16.0934 0 0
1:52 pm 13:52 Partly Cloudy 39 3.9 13 -10.6 34 34 NNW 9 15 30.71 1040 10 16.0934 0 0
2:52 pm 14:52 Partly Cloudy 39 3.9 11 -11.7 31 31 NNW 14 22 30.7 1040 10 16.0934 0 0
3:52 pm 15:52 Partly Cloudy 38 3.3 12 -11.1 34 34 NNW 10 17 30.7 1040 10 16.0934 0 0
4:52 pm 16:52 Mostly Sunny 35 1.7 12 -11.1 38 38 NW 10 17 30.71 1040 10 16.0934 0 0
5:52 pm 17:52 Mostly Cloudy 34 1.1 12 -11.1 40 40 NW 13 20 30.72 1040 10 16.0934 0 0
6:52 pm 18:52 Mostly Cloudy 33 0.6 12 -11.1 42 42 NNW 10 17 30.73 1041 10 16.0934 0 0
7:52 pm 19:52 Mostly Cloudy 32 0 12 -11.1 43 43 NNW 7 11 30.73 1041 10 16.0934 0 0
8:52 pm 20:52 Partly Cloudy 31 -0.6 13 -10.6 47 47 N 9 15 30.71 1040 10 16.0934 0 0
9:52 pm 21:52 Mostly Cloudy 31 -0.6 14 -10 49 49 N 5 7 30.71 1040 10 16.0934 0 0
10:52 pm 22:52 Mostly Cloudy 31 -0.6 13 -10.6 47 47 ENE 7 11 30.7 1040 10 16.0934 0 0
11:52 pm 23:52 Mostly Cloudy 31 -0.6 9 -12.8 40 40 ENE 7 11 30.71 1040 10 16.0934 0 0

Powered by AerisWeather